Location: Katowice
(50.2611°N, 19.0242°E)
Time: 12:37:33
(UTC+02:00)

A-11 Canister half - Pass Details

Date: 23 July 2019
Orbit: 1526 x 1683 km, 47.3° (Epoch: 19 August)

Event Time Altitude Azimuth Distance (km) Brightness Sun altitude
Rises 19:21:32 0° 199° (SSW) 4,920 11.7 10.5°
Reaches altitude 10° 19:25:18 10° 188° (S) 3,927 11.1 9.9°
Maximum altitude 19:33:18 28° 135° (SE) 2,743 9.9 8.7°
Drops below altitude 10° 19:41:10 10° 82° (E) 3,866 10.6 7.6°
Sets 19:44:48 0° 71° (ENE) 4,831 11.2 7.0°
